GEFSGL_prec_meanprecacc_186.txt.gz
Total_Precipitation_Accumulation
0.99 0.99 1.04 1.01 1.03 1.10 1.18 1.18 1.24 1.31 1.37 1.33 1.26 1.22 1.12 1.05 1.04 1.07 1.08 1.18 1.19 1.17 1.24 1.26 1.32 1.43 1.57 1.61 1.65 1.71 1.91 2.08 1.97 1.86 1.73 1.59 1.45 1.30 1.14 1.14 1.15 1.09 0.92
0.93 0.94 0.99 1.03 1.00 0.98 1.03 1.03 1.04 1.09 1.08 1.05 1.04 1.11 1.12 1.09 1.08 1.06 1.03 1.01 1.06 1.08 1.13 1.22 1.27 1.40 1.52 1.49 1.57 1.64 1.83 2.05 2.13 2.26 2.29 2.04 1.74 1.52 1.41 1.25 1.01 0.93 0.94
0.88 0.92 0.99 0.97 0.93 0.95 1.04 1.06 1.01 1.01 1.00 0.98 0.97 0.98 0.99 1.05 1.18 1.20 1.17 1.16 1.18 1.10 1.15 1.23 1.21 1.24 1.33 1.36 1.47 1.60 1.74 1.89 2.07 2.17 2.30 2.11 1.93 1.64 1.64 1.44 1.20 1.12 0.90
0.76 0.90 1.04 1.11 1.11 1.13 1.11 1.12 1.08 1.01 1.04 1.01 0.94 0.94 0.97 0.96 1.02 1.15 1.20 1.19 1.15 1.10 1.11 1.10 1.05 1.06 1.14 1.23 1.28 1.44 1.60 1.74 1.86 1.90 2.03 2.09 2.11 2.08 2.01 1.79 1.62 1.42 1.15
0.76 0.96 1.10 1.13 1.10 1.08 1.02 1.07 1.09 1.01 0.98 1.03 0.94 0.89 0.93 0.98 0.94 0.93 1.03 1.06 1.05 1.02 1.04 0.97 0.85 0.84 0.87 0.90 0.96 1.20 1.38 1.52 1.68 1.78 1.90 2.07 2.19 2.32 2.17 2.04 1.92 1.79 1.53
0.77 0.87 0.91 0.98 1.02 0.96 0.90 0.88 0.91 0.95 0.94 0.93 0.87 0.84 0.81 0.72 0.75 0.74 0.75 0.83 0.89 0.90 0.92 0.93 0.82 0.70 0.65 0.67 0.69 0.82 1.01 1.18 1.42 1.67 1.84 2.06 2.15 2.12 2.24 2.23 2.15 2.01 1.87
0.72 0.73 0.80 0.94 0.98 0.90 0.79 0.82 0.89 0.90 0.89 0.87 0.79 0.76 0.74 0.71 0.58 0.53 0.54 0.64 0.74 0.77 0.81 0.85 0.73 0.65 0.63 0.59 0.64 0.70 0.75 0.82 0.97 1.29 1.57 1.69 1.72 1.73 1.98 2.15 2.15 2.07 2.03
0.70 0.75 0.79 0.94 0.97 0.92 0.87 0.84 0.85 0.86 0.87 0.88 0.79 0.74 0.80 0.74 0.57 0.48 0.43 0.42 0.56 0.66 0.69 0.74 0.76 0.76 0.69 0.66 0.66 0.71 0.69 0.69 0.73 0.80 0.96 1.10 1.28 1.44 1.66 1.95 2.18 2.15 2.15
0.66 0.78 0.86 0.98 1.00 0.97 0.94 0.90 0.88 0.88 0.84 0.82 0.81 0.79 0.81 0.79 0.60 0.48 0.44 0.48 0.60 0.65 0.69 0.70 0.73 0.77 0.70 0.57 0.58 0.66 0.71 0.73 0.64 0.66 0.70 0.81 0.94 1.09 1.28 1.52 1.79 2.07 2.31
0.74 0.83 0.92 1.00 1.06 1.04 1.03 1.02 0.96 0.94 0.87 0.80 0.79 0.81 0.80 0.84 0.63 0.43 0.40 0.52 0.70 0.76 0.85 0.84 0.70 0.63 0.60 0.46 0.50 0.62 0.65 0.66 0.61 0.62 0.64 0.66 0.71 0.85 0.97 1.18 1.37 1.61 1.87
0.81 0.90 1.02 1.12 1.11 1.09 1.12 1.11 1.06 1.01 1.00 0.92 0.83 0.82 0.83 0.78 0.64 0.43 0.40 0.50 0.72 0.85 0.88 0.89 0.81 0.59 0.49 0.45 0.43 0.50 0.56 0.53 0.59 0.66 0.73 0.75 0.76 0.82 0.88 0.98 1.21 1.35 1.43
0.88 0.94 1.09 1.22 1.07 1.03 1.18 1.21 1.17 1.17 1.16 1.11 1.05 0.96 0.94 0.92 0.72 0.55 0.48 0.51 0.63 0.82 0.94 0.93 0.80 0.61 0.52 0.47 0.39 0.40 0.39 0.36 0.45 0.58 0.67 0.72 0.75 0.76 0.84 0.95 1.12 1.29 1.42
0.96 1.05 1.09 1.15 1.24 1.29 1.28 1.28 1.26 1.23 1.23 1.19 1.17 1.12 1.09 1.11 1.02 0.71 0.61 0.57 0.63 0.72 0.81 0.87 0.78 0.57 0.48 0.48 0.46 0.39 0.34 0.34 0.42 0.49 0.56 0.64 0.67 0.73 0.84 1.01 1.20 1.30 1.34
1.13 1.18 1.21 1.21 1.24 1.34 1.47 1.44 1.37 1.29 1.29 1.31 1.27 1.27 1.25 1.24 1.17 0.95 0.80 0.70 0.68 0.67 0.69 0.70 0.72 0.64 0.52 0.53 0.55 0.47 0.40 0.45 0.49 0.49 0.54 0.62 0.67 0.76 0.88 0.97 1.09 1.23 1.33
1.26 1.26 1.29 1.30 1.33 1.41 1.45 1.44 1.39 1.32 1.24 1.28 1.31 1.31 1.29 1.25 1.12 1.01 0.96 0.93 0.87 0.80 0.76 0.83 0.83 0.87 0.79 0.75 0.77 0.71 0.66 0.68 0.67 0.63 0.63 0.67 0.72 0.79 0.85 0.95 1.06 1.13 1.21
1.47 1.38 1.36 1.35 1.41 1.45 1.46 1.32 1.13 1.04 0.98 0.94 0.98 1.00 0.98 0.94 0.88 0.83 0.84 0.84 0.82 0.82 0.77 0.88 0.98 1.00 0.98 0.98 0.97 0.95 0.92 0.88 0.85 0.86 0.82 0.78 0.80 0.84 0.85 0.91 1.03 1.09 1.09
1.62 1.55 1.44 1.37 1.38 1.39 1.43 1.45 1.35 1.19 1.12 0.98 0.84 0.79 0.81 0.77 0.74 0.73 0.76 0.79 0.80 0.81 0.81 0.92 1.05 1.09 1.09 1.09 1.04 1.00 1.01 0.96 0.96 0.96 0.95 0.94 0.94 0.97 0.95 0.94 1.02 1.08 1.06
1.58 1.53 1.45 1.39 1.35 1.33 1.35 1.38 1.36 1.36 1.36 1.24 1.03 0.90 0.82 0.71 0.66 0.67 0.75 0.82 0.84 0.83 0.90 1.04 1.16 1.15 1.17 1.16 1.08 1.03 1.04 1.00 0.99 0.98 0.99 0.97 0.98 1.04 1.05 1.01 1.00 1.04 1.06
1.49 1.42 1.37 1.35 1.36 1.35 1.35 1.38 1.40 1.43 1.45 1.44 1.27 1.09 0.94 0.75 0.67 0.68 0.70 0.75 0.86 0.95 1.03 1.12 1.14 1.13 1.16 1.14 1.08 1.05 1.08 1.06 1.02 1.04 1.02 1.01 1.01 1.08 1.10 1.09 1.05 1.08 1.05
1.50 1.43 1.40 1.34 1.31 1.37 1.45 1.38 1.38 1.46 1.46 1.40 1.33 1.14 0.92 0.82 0.80 0.81 0.77 0.78 0.87 0.94 0.98 1.01 1.00 0.99 1.02 1.03 1.04 1.07 1.13 1.11 1.09 1.08 1.01 0.99 1.00 1.05 1.07 1.07 1.04 1.03 1.03
1.35 1.30 1.26 1.16 1.12 1.19 1.30 1.33 1.31 1.41 1.42 1.33 1.22 1.07 0.87 0.79 0.86 0.91 0.93 0.89 0.89 0.90 0.92 0.94 0.94 0.92 0.89 0.94 0.98 1.00 1.05 1.07 1.03 1.00 0.97 0.96 0.95 1.00 1.00 0.98 1.00 0.98 0.98
1.30 1.28 1.19 1.10 1.09 1.13 1.18 1.21 1.26 1.32 1.31 1.24 1.11 0.96 0.87 0.80 0.81 0.83 0.82 0.80 0.79 0.82 0.84 0.92 0.95 0.92 0.89 0.94 0.97 0.97 0.95 0.93 0.92 0.90 0.89 0.87 0.90 0.95 0.95 0.95 0.99 0.98 0.97
1.29 1.29 1.27 1.18 1.13 1.18 1.20 1.23 1.27 1.22 1.18 1.19 1.13 1.01 0.95 0.95 0.87 0.81 0.77 0.73 0.73 0.75 0.76 0.79 0.83 0.83 0.82 0.83 0.85 0.86 0.82 0.80 0.79 0.74 0.76 0.79 0.82 0.87 0.89 0.90 0.95 0.98 0.95
1.28 1.30 1.27 1.19 1.15 1.14 1.16 1.22 1.22 1.11 1.02 1.02 1.01 0.93 0.91 0.92 0.85 0.77 0.67 0.64 0.66 0.65 0.63 0.64 0.63 0.61 0.64 0.68 0.72 0.74 0.71 0.68 0.67 0.69 0.70 0.74 0.75 0.77 0.79 0.81 0.87 0.91 0.90
1.25 1.29 1.29 1.23 1.15 1.06 1.01 1.02 1.01 0.96 0.88 0.85 0.86 0.84 0.83 0.79 0.75 0.67 0.60 0.62 0.65 0.63 0.57 0.55 0.55 0.57 0.57 0.58 0.61 0.64 0.66 0.66 0.68 0.64 0.62 0.65 0.68 0.73 0.74 0.78 0.86 0.92 0.91
1.15 1.15 1.12 1.07 0.98 0.90 0.88 0.88 0.84 0.76 0.72 0.69 0.70 0.73 0.72 0.71 0.69 0.64 0.58 0.59 0.61 0.60 0.56 0.53 0.55 0.57 0.58 0.56 0.53 0.53 0.52 0.51 0.55 0.57 0.53 0.54 0.63 0.71 0.72 0.70 0.70 0.79 0.81

GEFSGL_prec_meanprecacc_192.txt.gz
Total_Precipitation_Accumulation
1.07 1.07 1.13 1.09 1.12 1.21 1.30 1.30 1.35 1.42 1.46 1.40 1.33 1.28 1.17 1.10 1.09 1.13 1.13 1.23 1.24 1.23 1.28 1.31 1.37 1.48 1.63 1.67 1.69 1.75 1.94 2.11 2.02 1.92 1.77 1.63 1.49 1.33 1.16 1.15 1.18 1.11 0.93
0.97 0.99 1.06 1.12 1.09 1.07 1.13 1.15 1.16 1.19 1.17 1.14 1.12 1.19 1.19 1.16 1.13 1.10 1.07 1.06 1.12 1.14 1.19 1.28 1.32 1.44 1.57 1.54 1.61 1.68 1.86 2.08 2.16 2.31 2.33 2.08 1.78 1.55 1.43 1.26 1.02 0.93 0.94
0.93 0.98 1.06 1.04 1.01 1.03 1.13 1.15 1.12 1.10 1.10 1.06 1.03 1.05 1.05 1.12 1.24 1.25 1.22 1.21 1.23 1.15 1.20 1.28 1.25 1.28 1.36 1.39 1.50 1.63 1.77 1.92 2.10 2.21 2.34 2.16 1.96 1.66 1.66 1.46 1.21 1.14 0.91
0.81 0.97 1.11 1.17 1.19 1.22 1.22 1.20 1.15 1.10 1.12 1.08 1.01 1.01 1.03 1.02 1.08 1.21 1.25 1.23 1.19 1.14 1.14 1.14 1.09 1.09 1.17 1.27 1.32 1.49 1.64 1.79 1.91 1.95 2.07 2.13 2.14 2.10 2.04 1.82 1.64 1.44 1.16
0.80 1.02 1.16 1.19 1.18 1.18 1.14 1.18 1.17 1.08 1.05 1.11 1.02 0.98 1.02 1.05 1.00 1.00 1.08 1.10 1.09 1.06 1.07 1.01 0.89 0.88 0.91 0.95 1.01 1.25 1.43 1.58 1.73 1.82 1.94 2.11 2.22 2.36 2.21 2.07 1.95 1.82 1.56
0.83 0.93 0.99 1.06 1.10 1.05 0.99 0.98 0.99 1.03 1.03 1.03 0.96 0.92 0.89 0.77 0.80 0.79 0.79 0.87 0.93 0.96 0.98 0.99 0.87 0.74 0.69 0.72 0.74 0.86 1.04 1.22 1.45 1.71 1.88 2.11 2.20 2.17 2.28 2.26 2.18 2.04 1.90
0.79 0.82 0.90 1.03 1.08 0.99 0.88 0.91 0.97 0.98 0.99 0.97 0.89 0.85 0.84 0.78 0.63 0.57 0.57 0.68 0.79 0.83 0.88 0.93 0.78 0.69 0.68 0.63 0.67 0.73 0.76 0.84 0.98 1.31 1.61 1.74 1.77 1.78 2.01 2.19 2.19 2.11 2.07
0.80 0.88 0.93 1.05 1.09 1.04 0.97 0.93 0.93 0.92 0.94 0.96 0.86 0.83 0.89 0.81 0.62 0.51 0.45 0.45 0.60 0.71 0.75 0.80 0.82 0.83 0.75 0.71 0.71 0.75 0.73 0.73 0.74 0.81 0.99 1.14 1.31 1.47 1.69 1.97 2.21 2.19 2.20
0.77 0.89 1.00 1.12 1.13 1.10 1.07 1.01 0.99 0.98 0.94 0.91 0.89 0.87 0.89 0.85 0.63 0.50 0.46 0.52 0.66 0.71 0.74 0.75 0.79 0.85 0.78 0.63 0.63 0.71 0.77 0.79 0.67 0.68 0.71 0.83 0.96 1.10 1.29 1.54 1.81 2.10 2.35
0.81 0.91 1.01 1.09 1.16 1.14 1.16 1.14 1.08 1.06 0.98 0.90 0.90 0.92 0.90 0.91 0.68 0.46 0.43 0.56 0.76 0.83 0.92 0.90 0.76 0.70 0.66 0.51 0.54 0.68 0.70 0.72 0.65 0.65 0.66 0.68 0.73 0.87 0.99 1.20 1.40 1.64 1.90
0.87 0.97 1.09 1.20 1.20 1.19 1.22 1.22 1.17 1.13 1.13 1.04 0.95 0.95 0.95 0.87 0.70 0.48 0.44 0.54 0.76 0.92 0.95 0.95 0.85 0.62 0.52 0.47 0.45 0.54 0.59 0.57 0.62 0.70 0.76 0.78 0.79 0.85 0.91 1.00 1.23 1.37 1.46
0.96 1.03 1.17 1.30 1.14 1.09 1.27 1.31 1.28 1.29 1.28 1.23 1.17 1.08 1.05 1.02 0.78 0.60 0.52 0.54 0.66 0.87 1.01 0.99 0.84 0.65 0.55 0.49 0.41 0.42 0.41 0.39 0.48 0.62 0.70 0.75 0.77 0.78 0.86 0.97 1.15 1.32 1.45
1.06 1.16 1.20 1.24 1.34 1.40 1.39 1.40 1.38 1.35 1.35 1.30 1.27 1.22 1.20 1.20 1.09 0.77 0.65 0.61 0.67 0.77 0.85 0.92 0.82 0.60 0.51 0.50 0.48 0.41 0.36 0.36 0.45 0.53 0.59 0.66 0.69 0.74 0.86 1.03 1.22 1.33 1.36
1.24 1.30 1.32 1.32 1.35 1.47 1.59 1.55 1.47 1.38 1.38 1.40 1.35 1.36 1.34 1.32 1.24 1.00 0.84 0.74 0.72 0.71 0.73 0.74 0.75 0.67 0.56 0.57 0.58 0.50 0.43 0.48 0.51 0.51 0.56 0.63 0.69 0.78 0.90 0.99 1.12 1.27 1.38
1.40 1.40 1.42 1.41 1.45 1.52 1.55 1.53 1.46 1.39 1.30 1.34 1.37 1.38 1.37 1.32 1.19 1.07 1.01 0.97 0.91 0.85 0.81 0.87 0.87 0.90 0.81 0.78 0.80 0.75 0.70 0.73 0.71 0.66 0.66 0.70 0.76 0.83 0.89 0.99 1.10 1.17 1.26
1.67 1.54 1.49 1.49 1.55 1.56 1.57 1.41 1.18 1.10 1.04 0.98 1.02 1.05 1.02 0.98 0.92 0.88 0.89 0.88 0.86 0.85 0.81 0.93 1.03 1.05 1.03 1.03 1.02 1.00 0.98 0.94 0.93 0.93 0.89 0.84 0.86 0.89 0.91 0.97 1.08 1.14 1.14
1.83 1.74 1.60 1.52 1.52 1.49 1.53 1.52 1.42 1.24 1.16 1.01 0.87 0.82 0.84 0.79 0.76 0.75 0.78 0.82 0.83 0.84 0.85 0.96 1.11 1.16 1.16 1.17 1.12 1.08 1.09 1.04 1.04 1.05 1.04 1.03 1.03 1.05 1.03 1.02 1.09 1.15 1.12
1.73 1.68 1.60 1.53 1.46 1.42 1.42 1.44 1.40 1.40 1.39 1.27 1.06 0.93 0.83 0.73 0.68 0.69 0.77 0.83 0.86 0.85 0.93 1.08 1.22 1.22 1.24 1.24 1.16 1.11 1.12 1.08 1.07 1.07 1.07 1.06 1.06 1.11 1.11 1.06 1.05 1.09 1.10
1.61 1.52 1.48 1.45 1.47 1.47 1.44 1.45 1.45 1.47 1.49 1.48 1.30 1.12 0.96 0.77 0.69 0.71 0.74 0.78 0.90 0.99 1.07 1.18 1.21 1.20 1.22 1.20 1.15 1.12 1.16 1.14 1.11 1.13 1.10 1.10 1.09 1.16 1.17 1.14 1.10 1.13 1.10
1.63 1.55 1.50 1.44 1.43 1.50 1.58 1.50 1.48 1.54 1.53 1.48 1.39 1.18 0.95 0.85 0.83 0.84 0.80 0.83 0.93 1.01 1.04 1.06 1.04 1.03 1.06 1.08 1.09 1.12 1.18 1.16 1.15 1.14 1.08 1.06 1.07 1.12 1.14 1.14 1.10 1.08 1.08
1.46 1.40 1.34 1.25 1.23 1.28 1.40 1.42 1.39 1.49 1.50 1.41 1.28 1.12 0.92 0.81 0.89 0.94 0.96 0.93 0.94 0.96 0.97 0.99 0.99 0.95 0.92 0.98 1.02 1.05 1.09 1.11 1.07 1.04 1.01 1.01 1.01 1.07 1.06 1.04 1.06 1.03 1.03
1.40 1.37 1.28 1.20 1.19 1.22 1.27 1.30 1.34 1.38 1.37 1.31 1.16 1.00 0.91 0.83 0.84 0.85 0.84 0.82 0.82 0.85 0.87 0.96 0.99 0.96 0.94 0.98 1.02 1.02 0.99 0.96 0.95 0.93 0.91 0.90 0.93 0.99 1.00 1.01 1.05 1.04 1.02
1.43 1.40 1.37 1.29 1.22 1.26 1.28 1.32 1.36 1.30 1.24 1.24 1.17 1.04 0.98 0.98 0.90 0.85 0.81 0.77 0.76 0.78 0.79 0.83 0.86 0.85 0.85 0.86 0.89 0.90 0.86 0.83 0.81 0.77 0.78 0.81 0.84 0.89 0.92 0.94 1.00 1.03 1.00
1.42 1.41 1.36 1.27 1.21 1.19 1.21 1.28 1.30 1.20 1.11 1.10 1.08 0.98 0.96 0.96 0.89 0.81 0.71 0.68 0.71 0.70 0.69 0.69 0.67 0.64 0.66 0.70 0.74 0.76 0.73 0.70 0.70 0.71 0.72 0.77 0.78 0.79 0.82 0.85 0.91 0.96 0.96
1.38 1.40 1.38 1.30 1.20 1.10 1.05 1.06 1.05 1.01 0.95 0.93 0.94 0.92 0.91 0.86 0.81 0.73 0.67 0.68 0.71 0.68 0.60 0.58 0.58 0.59 0.59 0.60 0.63 0.65 0.68 0.69 0.71 0.67 0.65 0.69 0.72 0.77 0.78 0.82 0.90 0.97 0.96
1.28 1.27 1.22 1.14 1.04 0.95 0.92 0.93 0.88 0.80 0.76 0.73 0.73 0.76 0.75 0.74 0.73 0.68 0.62 0.62 0.64 0.62 0.58 0.55 0.56 0.59 0.60 0.57 0.55 0.54 0.54 0.53 0.57 0.59 0.55 0.56 0.66 0.75 0.76 0.73 0.74 0.83 0.86

GEFSGL_prec_meanprecacc_198.txt.gz
Total_Precipitation_Accumulation
1.14 1.14 1.19 1.17 1.22 1.32 1.41 1.37 1.41 1.47 1.52 1.46 1.37 1.33 1.23 1.15 1.13 1.16 1.15 1.25 1.26 1.24 1.29 1.32 1.37 1.49 1.64 1.68 1.71 1.77 1.97 2.13 2.04 1.93 1.78 1.64 1.50 1.35 1.18 1.16 1.19 1.12 0.93
1.06 1.10 1.16 1.20 1.18 1.15 1.19 1.20 1.23 1.26 1.24 1.21 1.19 1.25 1.27 1.23 1.19 1.15 1.11 1.10 1.15 1.18 1.22 1.30 1.34 1.47 1.60 1.57 1.66 1.73 1.90 2.11 2.19 2.32 2.35 2.09 1.80 1.56 1.44 1.28 1.03 0.94 0.95
1.03 1.06 1.13 1.11 1.07 1.10 1.21 1.23 1.20 1.18 1.18 1.16 1.14 1.14 1.13 1.19 1.30 1.32 1.28 1.27 1.29 1.21 1.25 1.32 1.27 1.30 1.39 1.42 1.54 1.67 1.82 1.97 2.15 2.24 2.36 2.17 1.98 1.68 1.68 1.48 1.22 1.16 0.93
0.92 1.05 1.19 1.24 1.25 1.29 1.30 1.29 1.25 1.19 1.21 1.21 1.14 1.11 1.10 1.09 1.15 1.28 1.32 1.30 1.26 1.20 1.19 1.17 1.11 1.11 1.20 1.29 1.35 1.52 1.68 1.85 1.97 1.99 2.10 2.16 2.17 2.13 2.07 1.85 1.67 1.47 1.20
0.96 1.10 1.23 1.26 1.26 1.27 1.24 1.28 1.27 1.19 1.15 1.22 1.13 1.08 1.09 1.11 1.06 1.08 1.17 1.17 1.15 1.10 1.10 1.03 0.90 0.90 0.94 0.99 1.04 1.29 1.49 1.64 1.78 1.87 1.97 2.14 2.25 2.38 2.24 2.11 1.98 1.84 1.58
0.92 1.01 1.06 1.14 1.20 1.16 1.11 1.09 1.10 1.13 1.12 1.13 1.08 1.07 1.03 0.88 0.89 0.88 0.88 0.93 0.98 1.00 1.02 1.02 0.90 0.77 0.73 0.77 0.80 0.92 1.11 1.28 1.50 1.75 1.90 2.12 2.22 2.20 2.31 2.28 2.20 2.05 1.91
0.86 0.89 0.96 1.10 1.17 1.12 1.01 1.02 1.06 1.07 1.08 1.06 1.01 1.00 0.99 0.92 0.77 0.69 0.67 0.77 0.88 0.90 0.94 0.97 0.82 0.72 0.72 0.67 0.73 0.79 0.83 0.89 1.02 1.34 1.62 1.76 1.79 1.80 2.03 2.20 2.20 2.12 2.08
0.87 0.93 0.98 1.11 1.18 1.16 1.10 1.04 1.03 1.02 1.03 1.06 1.01 0.98 1.03 0.95 0.79 0.66 0.57 0.56 0.69 0.78 0.81 0.84 0.85 0.87 0.79 0.76 0.76 0.79 0.76 0.76 0.78 0.84 1.00 1.15 1.32 1.48 1.70 1.98 2.22 2.19 2.20
0.83 0.94 1.05 1.19 1.22 1.20 1.19 1.14 1.12 1.09 1.05 1.04 1.03 1.03 1.03 1.02 0.85 0.67 0.60 0.63 0.76 0.79 0.80 0.80 0.85 0.91 0.85 0.69 0.68 0.76 0.80 0.82 0.71 0.71 0.73 0.84 0.97 1.11 1.30 1.55 1.82 2.11 2.36
0.86 0.96 1.07 1.16 1.25 1.24 1.27 1.29 1.24 1.21 1.13 1.06 1.09 1.12 1.09 1.11 0.90 0.63 0.56 0.66 0.85 0.90 0.97 0.94 0.82 0.75 0.71 0.56 0.59 0.72 0.74 0.75 0.69 0.68 0.69 0.70 0.74 0.88 1.00 1.21 1.41 1.66 1.91
0.91 1.01 1.14 1.26 1.28 1.28 1.34 1.37 1.33 1.29 1.29 1.20 1.13 1.14 1.17 1.08 0.86 0.60 0.53 0.61 0.82 0.97 0.99 0.99 0.89 0.66 0.56 0.51 0.49 0.56 0.63 0.61 0.66 0.74 0.81 0.83 0.83 0.88 0.94 1.02 1.24 1.39 1.46
1.00 1.09 1.23 1.37 1.22 1.19 1.39 1.43 1.41 1.43 1.43 1.37 1.31 1.22 1.21 1.17 0.90 0.70 0.60 0.61 0.73 0.93 1.07 1.05 0.90 0.71 0.61 0.55 0.46 0.45 0.44 0.43 0.52 0.66 0.75 0.80 0.81 0.82 0.89 1.00 1.16 1.33 1.46
1.13 1.22 1.26 1.30 1.40 1.46 1.47 1.49 1.48 1.45 1.45 1.40 1.38 1.32 1.31 1.34 1.23 0.90 0.77 0.72 0.75 0.84 0.92 0.99 0.89 0.66 0.57 0.56 0.53 0.46 0.40 0.40 0.50 0.58 0.64 0.71 0.73 0.77 0.89 1.06 1.24 1.35 1.38
1.33 1.37 1.38 1.38 1.43 1.56 1.68 1.63 1.54 1.44 1.46 1.48 1.44 1.46 1.45 1.44 1.35 1.13 0.96 0.85 0.81 0.79 0.80 0.80 0.81 0.72 0.60 0.61 0.63 0.54 0.47 0.52 0.57 0.57 0.62 0.69 0.75 0.83 0.96 1.04 1.16 1.31 1.41
1.51 1.49 1.49 1.50 1.55 1.60 1.61 1.58 1.53 1.45 1.37 1.43 1.46 1.47 1.45 1.40 1.27 1.16 1.09 1.04 0.97 0.90 0.85 0.92 0.91 0.94 0.85 0.82 0.84 0.79 0.75 0.78 0.76 0.71 0.71 0.75 0.81 0.87 0.92 1.02 1.13 1.21 1.29
1.76 1.62 1.58 1.58 1.62 1.61 1.61 1.44 1.23 1.16 1.11 1.07 1.12 1.12 1.09 1.04 0.98 0.93 0.93 0.91 0.88 0.87 0.83 0.95 1.06 1.08 1.06 1.06 1.06 1.03 1.02 0.98 0.97 0.98 0.94 0.89 0.91 0.95 0.96 1.01 1.13 1.20 1.19
1.90 1.83 1.68 1.60 1.57 1.54 1.56 1.56 1.45 1.28 1.22 1.09 0.96 0.90 0.90 0.84 0.81 0.79 0.81 0.84 0.85 0.85 0.86 0.98 1.13 1.17 1.18 1.19 1.14 1.10 1.12 1.08 1.08 1.10 1.09 1.08 1.09 1.12 1.10 1.09 1.16 1.24 1.21
1.80 1.76 1.67 1.60 1.52 1.47 1.47 1.49 1.45 1.44 1.43 1.31 1.11 0.98 0.87 0.76 0.72 0.73 0.80 0.86 0.88 0.86 0.95 1.10 1.25 1.24 1.26 1.26 1.19 1.14 1.15 1.11 1.11 1.12 1.12 1.11 1.13 1.18 1.20 1.16 1.17 1.23 1.23
1.69 1.59 1.54 1.53 1.56 1.57 1.56 1.57 1.55 1.55 1.55 1.53 1.34 1.16 0.99 0.80 0.72 0.75 0.78 0.82 0.92 1.01 1.09 1.20 1.22 1.22 1.25 1.23 1.18 1.16 1.20 1.17 1.14 1.16 1.13 1.13 1.13 1.22 1.24 1.21 1.16 1.19 1.16
1.73 1.64 1.59 1.53 1.52 1.61 1.69 1.62 1.59 1.65 1.62 1.54 1.45 1.23 0.99 0.88 0.86 0.88 0.84 0.87 0.97 1.03 1.06 1.08 1.06 1.06 1.09 1.11 1.13 1.17 1.23 1.21 1.19 1.18 1.12 1.10 1.11 1.16 1.18 1.18 1.15 1.13 1.13
1.54 1.48 1.42 1.32 1.30 1.37 1.48 1.52 1.53 1.63 1.60 1.49 1.36 1.20 0.99 0.85 0.91 0.96 0.97 0.95 0.97 1.00 1.00 1.02 1.01 0.98 0.96 1.01 1.05 1.08 1.12 1.14 1.10 1.07 1.04 1.04 1.04 1.10 1.08 1.06 1.07 1.05 1.05
1.47 1.44 1.34 1.27 1.27 1.31 1.36 1.41 1.50 1.56 1.52 1.44 1.27 1.08 0.97 0.87 0.87 0.88 0.86 0.84 0.84 0.87 0.89 0.97 1.01 0.98 0.96 1.00 1.04 1.03 1.01 0.99 0.97 0.95 0.93 0.92 0.95 1.01 1.01 1.02 1.06 1.05 1.04
1.52 1.49 1.48 1.44 1.34 1.37 1.39 1.44 1.50 1.44 1.38 1.38 1.28 1.13 1.03 1.02 0.93 0.87 0.82 0.79 0.77 0.79 0.80 0.84 0.87 0.87 0.87 0.88 0.91 0.91 0.87 0.85 0.83 0.78 0.80 0.83 0.85 0.91 0.94 0.95 1.02 1.05 1.02
1.50 1.49 1.45 1.38 1.32 1.30 1.33 1.42 1.44 1.33 1.23 1.22 1.18 1.07 1.03 1.03 0.94 0.85 0.75 0.71 0.74 0.73 0.72 0.73 0.71 0.68 0.70 0.73 0.77 0.78 0.75 0.72 0.71 0.73 0.74 0.78 0.80 0.81 0.84 0.87 0.93 0.97 0.98
1.45 1.46 1.45 1.38 1.30 1.20 1.16 1.19 1.19 1.14 1.06 1.03 1.04 1.03 1.03 0.96 0.88 0.79 0.72 0.75 0.78 0.76 0.68 0.65 0.65 0.65 0.64 0.64 0.66 0.68 0.71 0.71 0.72 0.68 0.67 0.71 0.74 0.79 0.80 0.84 0.92 0.99 0.98
1.33 1.32 1.28 1.20 1.10 1.03 1.00 1.01 0.98 0.91 0.87 0.85 0.86 0.88 0.85 0.82 0.79 0.73 0.67 0.67 0.67 0.66 0.62 0.58 0.59 0.61 0.62 0.59 0.57 0.56 0.56 0.55 0.59 0.60 0.57 0.58 0.68 0.76 0.78 0.75 0.75 0.85 0.88

GEFSGL_prec_meanprecacc_204.txt.gz
Total_Precipitation_Accumulation
1.27 1.26 1.31 1.27 1.32 1.41 1.48 1.43 1.47 1.51 1.56 1.51 1.43 1.39 1.28 1.20 1.19 1.21 1.19 1.29 1.29 1.27 1.33 1.35 1.41 1.51 1.66 1.70 1.73 1.79 1.99 2.15 2.05 1.94 1.79 1.65 1.51 1.37 1.20 1.18 1.21 1.13 0.95
1.17 1.19 1.26 1.34 1.33 1.26 1.26 1.26 1.27 1.30 1.29 1.26 1.24 1.29 1.30 1.28 1.25 1.20 1.14 1.13 1.17 1.20 1.26 1.33 1.36 1.49 1.62 1.59 1.67 1.75 1.91 2.14 2.21 2.34 2.36 2.11 1.81 1.58 1.46 1.29 1.05 0.96 0.97
1.10 1.15 1.23 1.22 1.19 1.20 1.28 1.29 1.26 1.23 1.22 1.20 1.19 1.19 1.18 1.26 1.36 1.38 1.32 1.30 1.31 1.23 1.28 1.35 1.30 1.33 1.41 1.44 1.55 1.68 1.83 1.99 2.18 2.27 2.38 2.19 2.00 1.70 1.71 1.50 1.23 1.17 0.94
0.98 1.13 1.28 1.32 1.33 1.36 1.38 1.36 1.31 1.24 1.26 1.25 1.19 1.16 1.16 1.14 1.20 1.32 1.36 1.34 1.29 1.24 1.24 1.21 1.14 1.14 1.22 1.31 1.37 1.54 1.71 1.88 2.00 2.02 2.13 2.19 2.21 2.16 2.10 1.88 1.69 1.48 1.21
1.02 1.17 1.28 1.32 1.33 1.33 1.29 1.32 1.32 1.23 1.19 1.27 1.18 1.13 1.14 1.15 1.10 1.12 1.22 1.22 1.21 1.17 1.15 1.07 0.94 0.93 0.97 1.02 1.08 1.33 1.54 1.69 1.84 1.93 2.03 2.19 2.29 2.41 2.27 2.13 1.99 1.86 1.59
0.96 1.08 1.13 1.19 1.26 1.22 1.16 1.14 1.14 1.16 1.16 1.17 1.13 1.12 1.09 0.95 0.97 0.96 0.96 1.01 1.06 1.06 1.07 1.07 0.94 0.81 0.77 0.81 0.83 0.97 1.18 1.36 1.57 1.81 1.97 2.18 2.25 2.23 2.34 2.31 2.22 2.07 1.92
0.91 0.96 1.03 1.16 1.22 1.16 1.05 1.06 1.10 1.11 1.12 1.10 1.06 1.05 1.04 0.99 0.86 0.79 0.79 0.88 0.97 0.99 1.01 1.04 0.89 0.78 0.79 0.72 0.78 0.85 0.89 0.95 1.08 1.42 1.69 1.81 1.83 1.83 2.06 2.22 2.22 2.14 2.09
0.93 1.02 1.06 1.17 1.21 1.19 1.13 1.08 1.07 1.06 1.06 1.10 1.04 1.03 1.07 1.00 0.87 0.78 0.71 0.67 0.80 0.88 0.89 0.93 0.94 0.95 0.88 0.84 0.82 0.84 0.80 0.81 0.84 0.90 1.05 1.18 1.35 1.51 1.73 2.01 2.24 2.21 2.21
0.89 1.02 1.12 1.25 1.26 1.24 1.23 1.18 1.15 1.13 1.09 1.09 1.09 1.10 1.10 1.10 1.00 0.86 0.79 0.80 0.90 0.92 0.93 0.91 0.93 0.97 0.93 0.78 0.76 0.83 0.87 0.89 0.79 0.78 0.78 0.88 1.01 1.15 1.33 1.57 1.84 2.13 2.37
0.92 1.03 1.13 1.22 1.31 1.28 1.31 1.33 1.28 1.25 1.18 1.15 1.21 1.25 1.22 1.26 1.10 0.88 0.81 0.87 1.01 1.04 1.10 1.05 0.92 0.82 0.79 0.65 0.67 0.79 0.80 0.80 0.74 0.73 0.73 0.73 0.77 0.90 1.03 1.23 1.44 1.69 1.93
0.98 1.08 1.19 1.31 1.34 1.34 1.41 1.43 1.39 1.35 1.35 1.28 1.22 1.26 1.32 1.25 1.01 0.76 0.73 0.79 0.97 1.10 1.10 1.08 0.97 0.74 0.63 0.59 0.56 0.62 0.68 0.66 0.70 0.78 0.85 0.86 0.87 0.91 0.97 1.06 1.29 1.44 1.51
1.06 1.13 1.27 1.42 1.27 1.25 1.46 1.51 1.48 1.49 1.49 1.43 1.37 1.31 1.36 1.35 1.07 0.85 0.77 0.78 0.88 1.06 1.20 1.15 0.98 0.78 0.66 0.61 0.52 0.51 0.52 0.50 0.58 0.71 0.79 0.83 0.85 0.86 0.93 1.04 1.21 1.37 1.51
1.17 1.25 1.29 1.34 1.45 1.53 1.55 1.58 1.56 1.52 1.51 1.46 1.44 1.39 1.40 1.45 1.36 1.03 0.88 0.84 0.89 0.95 1.03 1.10 0.99 0.75 0.63 0.61 0.59 0.52 0.45 0.45 0.55 0.62 0.69 0.75 0.76 0.81 0.93 1.10 1.28 1.39 1.42
1.38 1.42 1.42 1.43 1.47 1.61 1.76 1.71 1.62 1.52 1.53 1.55 1.50 1.52 1.53 1.53 1.46 1.23 1.06 0.94 0.92 0.90 0.92 0.93 0.93 0.83 0.69 0.69 0.69 0.60 0.51 0.56 0.61 0.61 0.65 0.73 0.79 0.88 1.00 1.08 1.20 1.35 1.45
1.55 1.54 1.55 1.57 1.61 1.66 1.67 1.63 1.58 1.51 1.43 1.49 1.52 1.52 1.51 1.47 1.33 1.22 1.16 1.11 1.05 0.99 0.95 1.01 0.99 1.01 0.92 0.87 0.89 0.83 0.78 0.82 0.80 0.74 0.74 0.77 0.84 0.90 0.96 1.06 1.17 1.24 1.33
1.82 1.69 1.66 1.67 1.70 1.68 1.67 1.49 1.28 1.20 1.15 1.11 1.16 1.17 1.14 1.10 1.03 0.97 0.98 0.96 0.95 0.94 0.90 1.02 1.12 1.13 1.10 1.09 1.08 1.05 1.03 1.00 0.98 1.00 0.96 0.91 0.93 0.97 0.98 1.05 1.16 1.23 1.22
1.97 1.89 1.77 1.70 1.66 1.61 1.62 1.62 1.49 1.32 1.26 1.13 1.01 0.96 0.96 0.90 0.85 0.83 0.85 0.87 0.89 0.89 0.90 1.02 1.16 1.20 1.20 1.21 1.16 1.12 1.14 1.09 1.10 1.11 1.10 1.09 1.11 1.13 1.12 1.12 1.19 1.27 1.24
1.88 1.82 1.72 1.67 1.61 1.55 1.54 1.56 1.51 1.49 1.47 1.35 1.16 1.04 0.94 0.83 0.77 0.78 0.85 0.89 0.91 0.90 0.98 1.13 1.26 1.26 1.28 1.28 1.20 1.15 1.16 1.12 1.11 1.12 1.13 1.12 1.13 1.19 1.21 1.18 1.19 1.25 1.25
1.75 1.65 1.59 1.59 1.62 1.63 1.62 1.64 1.62 1.63 1.62 1.58 1.39 1.22 1.07 0.86 0.76 0.79 0.83 0.86 0.97 1.05 1.12 1.22 1.24 1.24 1.26 1.24 1.18 1.16 1.20 1.18 1.15 1.16 1.14 1.14 1.14 1.22 1.24 1.22 1.17 1.21 1.18
1.78 1.71 1.66 1.58 1.56 1.65 1.73 1.67 1.67 1.74 1.70 1.61 1.52 1.31 1.05 0.91 0.88 0.90 0.86 0.89 0.98 1.04 1.07 1.09 1.08 1.07 1.10 1.12 1.14 1.18 1.25 1.23 1.21 1.20 1.14 1.12 1.13 1.18 1.19 1.19 1.17 1.15 1.14
1.55 1.51 1.45 1.35 1.33 1.39 1.51 1.56 1.60 1.70 1.67 1.58 1.47 1.31 1.07 0.91 0.94 0.99 1.00 0.98 0.99 1.01 1.01 1.02 1.02 0.99 0.97 1.02 1.06 1.09 1.13 1.15 1.12 1.08 1.06 1.06 1.05 1.11 1.10 1.08 1.09 1.07 1.07
1.48 1.46 1.36 1.30 1.30 1.35 1.41 1.47 1.57 1.64 1.60 1.53 1.38 1.22 1.10 0.96 0.94 0.92 0.89 0.87 0.86 0.88 0.90 0.99 1.03 1.00 0.98 1.02 1.05 1.05 1.03 1.00 0.98 0.96 0.94 0.93 0.96 1.02 1.02 1.03 1.07 1.06 1.05
1.57 1.53 1.51 1.47 1.38 1.41 1.42 1.48 1.56 1.54 1.49 1.49 1.41 1.25 1.15 1.13 1.03 0.95 0.88 0.83 0.81 0.83 0.83 0.87 0.90 0.89 0.89 0.90 0.93 0.93 0.89 0.86 0.84 0.79 0.81 0.84 0.86 0.92 0.95 0.97 1.03 1.07 1.05
1.57 1.55 1.49 1.42 1.36 1.34 1.37 1.47 1.51 1.43 1.33 1.32 1.28 1.18 1.13 1.13 1.05 0.97 0.84 0.78 0.79 0.77 0.75 0.75 0.73 0.70 0.72 0.75 0.79 0.80 0.76 0.73 0.72 0.74 0.75 0.79 0.81 0.83 0.86 0.89 0.96 1.01 1.01
1.49 1.50 1.48 1.41 1.32 1.23 1.19 1.23 1.25 1.23 1.17 1.14 1.14 1.13 1.12 1.06 0.97 0.87 0.80 0.82 0.84 0.80 0.72 0.68 0.67 0.68 0.67 0.66 0.68 0.70 0.72 0.72 0.73 0.69 0.67 0.72 0.75 0.80 0.81 0.86 0.94 1.00 1.00
1.36 1.36 1.31 1.22 1.11 1.05 1.02 1.05 1.04 1.00 0.97 0.93 0.93 0.94 0.90 0.87 0.85 0.78 0.71 0.70 0.71 0.69 0.64 0.62 0.63 0.65 0.65 0.63 0.59 0.58 0.57 0.55 0.59 0.61 0.57 0.58 0.68 0.77 0.78 0.76 0.76 0.86 0.89

GEFSGL_prec_meanprecacc_210.txt.gz
Total_Precipitation_Accumulation
1.31 1.31 1.36 1.34 1.41 1.51 1.56 1.50 1.53 1.58 1.62 1.57 1.49 1.45 1.35 1.26 1.25 1.27 1.25 1.34 1.34 1.33 1.37 1.40 1.46 1.56 1.71 1.74 1.76 1.81 2.02 2.20 2.09 1.96 1.82 1.67 1.54 1.41 1.23 1.21 1.24 1.16 0.98
1.21 1.23 1.33 1.42 1.40 1.34 1.32 1.30 1.31 1.34 1.33 1.31 1.29 1.34 1.36 1.35 1.32 1.28 1.23 1.21 1.24 1.25 1.30 1.37 1.40 1.52 1.65 1.63 1.71 1.78 1.94 2.17 2.24 2.38 2.40 2.14 1.84 1.62 1.49 1.33 1.07 0.98 0.99
1.13 1.18 1.28 1.28 1.24 1.25 1.33 1.34 1.29 1.27 1.26 1.26 1.25 1.24 1.23 1.31 1.41 1.42 1.37 1.36 1.37 1.28 1.33 1.38 1.33 1.36 1.44 1.46 1.58 1.71 1.85 2.01 2.21 2.30 2.41 2.22 2.02 1.73 1.74 1.53 1.25 1.19 0.96
1.00 1.15 1.32 1.36 1.37 1.41 1.42 1.41 1.35 1.27 1.29 1.30 1.25 1.21 1.21 1.19 1.25 1.36 1.40 1.38 1.35 1.30 1.30 1.26 1.19 1.18 1.26 1.35 1.40 1.57 1.75 1.92 2.04 2.07 2.17 2.23 2.26 2.19 2.14 1.92 1.73 1.52 1.24
1.04 1.19 1.32 1.36 1.37 1.37 1.33 1.36 1.35 1.26 1.23 1.32 1.24 1.20 1.21 1.21 1.14 1.16 1.26 1.27 1.26 1.22 1.21 1.12 0.99 0.98 1.03 1.08 1.13 1.39 1.60 1.76 1.90 1.98 2.08 2.25 2.34 2.47 2.31 2.17 2.03 1.90 1.63
1.00 1.12 1.16 1.22 1.29 1.24 1.19 1.18 1.18 1.20 1.21 1.22 1.18 1.19 1.15 0.99 1.02 1.01 1.01 1.06 1.12 1.13 1.14 1.14 1.00 0.86 0.81 0.86 0.88 1.03 1.25 1.43 1.65 1.89 2.04 2.25 2.33 2.30 2.41 2.37 2.27 2.11 1.97
0.95 0.99 1.06 1.18 1.23 1.18 1.09 1.11 1.14 1.16 1.17 1.14 1.10 1.10 1.09 1.03 0.89 0.83 0.83 0.94 1.06 1.10 1.12 1.14 0.98 0.86 0.85 0.78 0.84 0.90 0.94 1.01 1.14 1.49 1.78 1.89 1.92 1.93 2.15 2.30 2.30 2.22 2.17
0.95 1.04 1.09 1.19 1.23 1.22 1.18 1.13 1.12 1.10 1.10 1.13 1.07 1.06 1.12 1.04 0.90 0.80 0.74 0.71 0.85 0.95 0.97 1.01 1.01 1.02 0.93 0.88 0.87 0.89 0.86 0.87 0.91 0.97 1.13 1.28 1.48 1.65 1.84 2.10 2.34 2.29 2.28
0.92 1.05 1.16 1.29 1.30 1.28 1.27 1.22 1.20 1.17 1.13 1.12 1.12 1.14 1.16 1.16 1.05 0.91 0.85 0.86 0.99 1.03 1.04 1.02 1.04 1.07 1.01 0.84 0.81 0.88 0.93 0.96 0.87 0.87 0.88 0.98 1.10 1.24 1.41 1.65 1.92 2.20 2.44
0.97 1.07 1.17 1.27 1.36 1.33 1.36 1.38 1.32 1.29 1.22 1.18 1.25 1.28 1.27 1.30 1.14 0.94 0.91 0.97 1.15 1.22 1.31 1.26 1.11 0.95 0.89 0.74 0.74 0.85 0.85 0.86 0.80 0.79 0.79 0.79 0.83 0.96 1.09 1.29 1.50 1.77 2.02
1.03 1.12 1.24 1.36 1.40 1.39 1.45 1.48 1.44 1.38 1.39 1.31 1.24 1.28 1.35 1.27 1.03 0.80 0.82 0.91 1.12 1.27 1.27 1.24 1.09 0.85 0.73 0.68 0.64 0.68 0.74 0.71 0.75 0.83 0.90 0.91 0.91 0.96 1.02 1.10 1.34 1.50 1.59
1.11 1.18 1.32 1.46 1.32 1.30 1.51 1.58 1.56 1.54 1.54 1.48 1.40 1.33 1.38 1.37 1.10 0.89 0.83 0.88 1.03 1.25 1.37 1.29 1.11 0.92 0.79 0.71 0.59 0.58 0.58 0.57 0.64 0.77 0.85 0.89 0.91 0.93 1.00 1.10 1.27 1.44 1.58
1.21 1.30 1.34 1.39 1.49 1.57 1.60 1.65 1.63 1.58 1.56 1.52 1.48 1.42 1.42 1.48 1.41 1.10 0.96 0.94 1.04 1.10 1.18 1.26 1.13 0.87 0.73 0.69 0.66 0.59 0.52 0.51 0.61 0.69 0.76 0.82 0.82 0.87 0.98 1.15 1.33 1.45 1.48
1.41 1.47 1.48 1.48 1.52 1.65 1.80 1.78 1.69 1.57 1.60 1.62 1.55 1.55 1.56 1.58 1.51 1.31 1.17 1.07 1.07 1.05 1.05 1.04 1.02 0.91 0.77 0.76 0.77 0.67 0.58 0.62 0.67 0.66 0.71 0.78 0.82 0.90 1.02 1.11 1.24 1.40 1.51
1.58 1.57 1.59 1.61 1.67 1.71 1.71 1.67 1.62 1.55 1.48 1.54 1.58 1.58 1.57 1.54 1.41 1.30 1.24 1.20 1.14 1.08 1.03 1.08 1.06 1.08 0.99 0.94 0.95 0.89 0.83 0.86 0.84 0.78 0.78 0.81 0.86 0.92 0.98 1.08 1.19 1.27 1.37
1.85 1.72 1.70 1.71 1.75 1.73 1.71 1.53 1.33 1.26 1.20 1.17 1.22 1.23 1.20 1.15 1.09 1.01 1.01 1.01 0.99 0.98 0.93 1.07 1.17 1.19 1.16 1.15 1.13 1.10 1.08 1.04 1.02 1.03 0.99 0.94 0.96 0.99 1.00 1.06 1.18 1.25 1.24
1.99 1.92 1.81 1.74 1.70 1.65 1.66 1.65 1.54 1.38 1.33 1.21 1.08 1.01 1.00 0.94 0.89 0.86 0.88 0.91 0.92 0.92 0.92 1.04 1.19 1.23 1.24 1.25 1.20 1.16 1.18 1.12 1.12 1.13 1.12 1.12 1.14 1.16 1.14 1.14 1.21 1.29 1.26
1.92 1.86 1.76 1.70 1.64 1.59 1.59 1.62 1.58 1.55 1.53 1.42 1.24 1.11 0.98 0.86 0.81 0.82 0.88 0.92 0.94 0.93 1.01 1.16 1.29 1.28 1.30 1.30 1.23 1.17 1.18 1.14 1.12 1.13 1.14 1.13 1.15 1.21 1.23 1.19 1.20 1.27 1.27
1.78 1.69 1.63 1.62 1.66 1.68 1.68 1.72 1.73 1.73 1.73 1.69 1.50 1.32 1.15 0.93 0.82 0.86 0.89 0.90 1.01 1.09 1.16 1.25 1.27 1.26 1.28 1.26 1.20 1.18 1.22 1.19 1.16 1.17 1.14 1.14 1.14 1.23 1.26 1.23 1.18 1.21 1.18
1.81 1.76 1.70 1.62 1.59 1.67 1.76 1.71 1.72 1.80 1.79 1.72 1.63 1.40 1.13 0.98 0.93 0.94 0.91 0.94 1.03 1.09 1.11 1.13 1.11 1.09 1.12 1.13 1.15 1.19 1.25 1.23 1.22 1.21 1.15 1.13 1.14 1.19 1.20 1.20 1.17 1.16 1.15
1.58 1.53 1.48 1.38 1.35 1.41 1.53 1.59 1.62 1.73 1.71 1.63 1.52 1.38 1.15 0.96 0.99 1.03 1.05 1.03 1.05 1.06 1.06 1.06 1.04 1.01 0.99 1.04 1.09 1.11 1.15 1.17 1.13 1.10 1.07 1.07 1.06 1.12 1.11 1.08 1.10 1.07 1.08
1.51 1.48 1.38 1.31 1.32 1.37 1.43 1.49 1.59 1.66 1.62 1.56 1.41 1.26 1.15 1.02 1.01 0.99 0.96 0.94 0.93 0.94 0.94 1.03 1.06 1.04 1.01 1.06 1.08 1.08 1.05 1.02 0.99 0.97 0.95 0.93 0.96 1.02 1.03 1.04 1.08 1.07 1.06
1.61 1.56 1.54 1.50 1.40 1.44 1.44 1.50 1.58 1.56 1.53 1.53 1.45 1.30 1.20 1.20 1.11 1.04 0.97 0.91 0.88 0.88 0.88 0.91 0.93 0.92 0.92 0.93 0.95 0.95 0.90 0.87 0.85 0.80 0.81 0.84 0.87 0.93 0.96 0.98 1.05 1.09 1.06
1.61 1.59 1.53 1.45 1.39 1.37 1.41 1.50 1.54 1.47 1.39 1.38 1.34 1.24 1.20 1.21 1.13 1.04 0.91 0.84 0.84 0.81 0.79 0.78 0.76 0.72 0.74 0.76 0.79 0.80 0.76 0.73 0.72 0.74 0.75 0.80 0.82 0.84 0.87 0.90 0.97 1.02 1.02
1.52 1.52 1.51 1.44 1.36 1.27 1.23 1.27 1.28 1.25 1.21 1.19 1.19 1.18 1.17 1.11 1.02 0.91 0.83 0.85 0.86 0.83 0.75 0.71 0.71 0.71 0.70 0.69 0.70 0.70 0.72 0.72 0.74 0.70 0.68 0.72 0.76 0.81 0.82 0.87 0.94 1.01 1.01
1.39 1.38 1.32 1.23 1.13 1.07 1.04 1.07 1.06 1.02 1.00 0.97 0.97 0.98 0.94 0.91 0.88 0.81 0.74 0.74 0.76 0.75 0.71 0.68 0.69 0.70 0.71 0.68 0.63 0.60 0.59 0.57 0.61 0.62 0.58 0.59 0.69 0.78 0.79 0.77 0.78 0.87 0.91